Terminal Aerodrome Forecast
Issued by NWS Tulsa, OK

Home | Current Version | Previous Version | Text Only | Print | Product List | Glossary On
Versions: 1 2 3 4 5 6 7 8 9 10 11 12 13 14 15 16 17 18 19 20 21 22 23 24 25 26
479
FTPQ31 PGUM 252156 RRH
TAFTSA
TAF
PTSA 252156Z 2522/2618 07008KT P6SM VCSH BKN018 BKN130=

USA.gov is the U.S. government's official web portal to all federal, state and local government web resources and services.